<?xml version="1.0" encoding="UTF-8" standalone="no" ?><gpx xmlns="http://www.topografix.com/GPX/1/1" xmlns:gpxx="http://www.garmin.com/xmlschemas/GpxExtensions/v3" xmlns:wptx1="http://www.garmin.com/xmlschemas/WaypointExtension/v1" xmlns:gpxtpx="http://www.garmin.com/xmlschemas/TrackPointExtension/v1" creator="GuideVTT.com" version="1.1" xmlns:xsi="http://www.w3.org/2001/XMLSchema-instance" xsi:schemaLocation="http://www.topografix.com/GPX/1/1 http://www.topografix.com/GPX/1/1/gpx.xsd http://www.garmin.com/xmlschemas/GpxExtensions/v3 http://www8.garmin.com/xmlschemas/GpxExtensionsv3.xsd http://www.garmin.com/xmlschemas/WaypointExtension/v1 http://www8.garmin.com/xmlschemas/WaypointExtensionv1.xsd http://www.garmin.com/xmlschemas/TrackPointExtension/v1 http://www.garmin.com/xmlschemas/TrackPointExtensionv1.xsd">
<metadata><link href="http://www.garmin.com"><text>Garmin International</text></link><time>2013-06-22T15:13:50Z</time></metadata>
<trk><name>parcours29.gpx</name><extensions><gpxx:TrackExtension><gpxx:DisplayColor>Cyan</gpxx:DisplayColor></gpxx:TrackExtension></extensions><trkseg>
<trkpt lat="46.50551670" lon="6.48995000"><ele>377</ele><time>1989-12-31T00:00:00Z</time></trkpt>
<trkpt lat="46.50550000" lon="6.48995000"><ele>376</ele><time>1989-12-31T00:00:00Z</time></trkpt>
<trkpt lat="46.50550000" lon="6.48995000"><ele>376</ele><time>1989-12-31T00:00:00Z</time></trkpt>
<trkpt lat="46.50513330" lon="6.49016670"><ele>376</ele><time>1989-12-31T00:00:00Z</time></trkpt>
<trkpt lat="46.50508330" lon="6.49018330"><ele>375</ele><time>1989-12-31T00:00:00Z</time></trkpt>
<trkpt lat="46.50508330" lon="6.49036670"><ele>375</ele><time>1989-12-31T00:00:00Z</time></trkpt>
<trkpt lat="46.50511670" lon="6.49048330"><ele>375</ele><time>1989-12-31T00:00:00Z</time></trkpt>
<trkpt lat="46.50520000" lon="6.49085000"><ele>375</ele><time>1989-12-31T00:00:00Z</time></trkpt>
<trkpt lat="46.50500000" lon="6.49106670"><ele>375</ele><time>1989-12-31T00:00:00Z</time></trkpt>
<trkpt lat="46.50478330" lon="6.49111670"><ele>375</ele><time>1989-12-31T00:00:00Z</time></trkpt>
<trkpt lat="46.50455000" lon="6.49113330"><ele>375</ele><time>1989-12-31T00:00:00Z</time></trkpt>
<trkpt lat="46.50445000" lon="6.49138330"><ele>375</ele><time>1989-12-31T00:00:00Z</time></trkpt>
<trkpt lat="46.50446670" lon="6.49156670"><ele>375</ele><time>1989-12-31T00:00:00Z</time></trkpt>
<trkpt lat="46.50451670" lon="6.49183330"><ele>375</ele><time>1989-12-31T00:00:00Z</time></trkpt>
<trkpt lat="46.50466670" lon="6.49313330"><ele>374</ele><time>1989-12-31T00:00:00Z</time></trkpt>
<trkpt lat="46.50470000" lon="6.49333330"><ele>374</ele><time>1989-12-31T00:00:00Z</time></trkpt>
<trkpt lat="46.50478330" lon="6.49406670"><ele>373</ele><time>1989-12-31T00:00:00Z</time></trkpt>
<trkpt lat="46.50483330" lon="6.49455000"><ele>373</ele><time>1989-12-31T00:00:00Z</time></trkpt>
<trkpt lat="46.50483330" lon="6.49471670"><ele>374</ele><time>1989-12-31T00:00:00Z</time></trkpt>
<trkpt lat="46.50498330" lon="6.49505000"><ele>373</ele><time>1989-12-31T00:00:00Z</time></trkpt>
<trkpt lat="46.50543330" lon="6.49586670"><ele>373</ele><time>1989-12-31T00:00:00Z</time></trkpt>
<trkpt lat="46.50610000" lon="6.49696670"><ele>374</ele><time>1989-12-31T00:00:00Z</time></trkpt>
<trkpt lat="46.50626670" lon="6.49713330"><ele>373</ele><time>1989-12-31T00:00:00Z</time></trkpt>
<trkpt lat="46.50646670" lon="6.49725000"><ele>372</ele><time>1989-12-31T00:00:00Z</time></trkpt>
<trkpt lat="46.50698330" lon="6.49755000"><ele>372</ele><time>1989-12-31T00:00:00Z</time></trkpt>
<trkpt lat="46.50766670" lon="6.49878330"><ele>372</ele><time>1989-12-31T00:00:00Z</time></trkpt>
<trkpt lat="46.50788330" lon="6.49910000"><ele>373</ele><time>1989-12-31T00:00:00Z</time></trkpt>
<trkpt lat="46.50795000" lon="6.49918330"><ele>373</ele><time>1989-12-31T00:00:00Z</time></trkpt>
<trkpt lat="46.50841670" lon="6.49986670"><ele>372</ele><time>1989-12-31T00:00:00Z</time></trkpt>
<trkpt lat="46.50865000" lon="6.50020000"><ele>373</ele><time>1989-12-31T00:00:00Z</time></trkpt>
<trkpt lat="46.50916670" lon="6.50083330"><ele>372</ele><time>1989-12-31T00:00:00Z</time></trkpt>
<trkpt lat="46.50985000" lon="6.50131670"><ele>372</ele><time>1989-12-31T00:00:00Z</time></trkpt>
<trkpt lat="46.51023330" lon="6.50158330"><ele>372</ele><time>1989-12-31T00:00:00Z</time></trkpt>
<trkpt lat="46.51038330" lon="6.50166670"><ele>376</ele><time>1989-12-31T00:00:00Z</time></trkpt>
<trkpt lat="46.51076670" lon="6.50171670"><ele>376</ele><time>1989-12-31T00:00:00Z</time></trkpt>
<trkpt lat="46.51093330" lon="6.50143330"><ele>375</ele><time>1989-12-31T00:00:00Z</time></trkpt>
<trkpt lat="46.51108330" lon="6.50116670"><ele>375</ele><time>1989-12-31T00:00:00Z</time></trkpt>
<trkpt lat="46.51135000" lon="6.50093330"><ele>374</ele><time>1989-12-31T00:00:00Z</time></trkpt>
<trkpt lat="46.51165000" lon="6.50091670"><ele>373</ele><time>1989-12-31T00:00:00Z</time></trkpt>
<trkpt lat="46.51178330" lon="6.50091670"><ele>373</ele><time>1989-12-31T00:00:00Z</time></trkpt>
<trkpt lat="46.51203330" lon="6.50100000"><ele>372</ele><time>1989-12-31T00:00:00Z</time></trkpt>
<trkpt lat="46.51240000" lon="6.50121670"><ele>373</ele><time>1989-12-31T00:00:00Z</time></trkpt>
<trkpt lat="46.51243330" lon="6.50123330"><ele>374</ele><time>1989-12-31T00:00:00Z</time></trkpt>
<trkpt lat="46.51261670" lon="6.50151670"><ele>373</ele><time>1989-12-31T00:00:00Z</time></trkpt>
<trkpt lat="46.51300000" lon="6.50206670"><ele>372</ele><time>1989-12-31T00:00:00Z</time></trkpt>
<trkpt lat="46.51340000" lon="6.50255000"><ele>372</ele><time>1989-12-31T00:00:00Z</time></trkpt>
<trkpt lat="46.51355000" lon="6.50295000"><ele>372</ele><time>1989-12-31T00:00:00Z</time></trkpt>
<trkpt lat="46.51365000" lon="6.50325000"><ele>372</ele><time>1989-12-31T00:00:00Z</time></trkpt>
<trkpt lat="46.51373330" lon="6.50345000"><ele>372</ele><time>1989-12-31T00:00:00Z</time></trkpt>
<trkpt lat="46.51433330" lon="6.50428330"><ele>369</ele><time>1989-12-31T00:00:00Z</time></trkpt>
<trkpt lat="46.51508330" lon="6.50548330"><ele>372</ele><time>1989-12-31T00:00:00Z</time></trkpt>
<trkpt lat="46.51546670" lon="6.50626670"><ele>371</ele><time>1989-12-31T00:00:00Z</time></trkpt>
<trkpt lat="46.51553330" lon="6.50638330"><ele>371</ele><time>1989-12-31T00:00:00Z</time></trkpt>
<trkpt lat="46.51565000" lon="6.50676670"><ele>371</ele><time>1989-12-31T00:00:00Z</time></trkpt>
<trkpt lat="46.51578330" lon="6.50725000"><ele>373</ele><time>1989-12-31T00:00:00Z</time></trkpt>
<trkpt lat="46.51588330" lon="6.50756670"><ele>372</ele><time>1989-12-31T00:00:00Z</time></trkpt>
<trkpt lat="46.51603330" lon="6.50815000"><ele>372</ele><time>1989-12-31T00:00:00Z</time></trkpt>
<trkpt lat="46.51605000" lon="6.50830000"><ele>372</ele><time>1989-12-31T00:00:00Z</time></trkpt>
<trkpt lat="46.51615000" lon="6.50933330"><ele>371</ele><time>1989-12-31T00:00:00Z</time></trkpt>
<trkpt lat="46.51608330" lon="6.50970000"><ele>371</ele><time>1989-12-31T00:00:00Z</time></trkpt>
<trkpt lat="46.51591670" lon="6.51011670"><ele>372</ele><time>1989-12-31T00:00:00Z</time></trkpt>
<trkpt lat="46.51596670" lon="6.51048330"><ele>372</ele><time>1989-12-31T00:00:00Z</time></trkpt>
<trkpt lat="46.51590000" lon="6.51090000"><ele>372</ele><time>1989-12-31T00:00:00Z</time></trkpt>
<trkpt lat="46.51535000" lon="6.51141670"><ele>373</ele><time>1989-12-31T00:00:00Z</time></trkpt>
<trkpt lat="46.51511670" lon="6.51176670"><ele>374</ele><time>1989-12-31T00:00:00Z</time></trkpt>
<trkpt lat="46.51508330" lon="6.51181670"><ele>374</ele><time>1989-12-31T00:00:00Z</time></trkpt>
<trkpt lat="46.51496670" lon="6.51220000"><ele>374</ele><time>1989-12-31T00:00:00Z</time></trkpt>
<trkpt lat="46.51501670" lon="6.51270000"><ele>373</ele><time>1989-12-31T00:00:00Z</time></trkpt>
<trkpt lat="46.51513330" lon="6.51285000"><ele>373</ele><time>1989-12-31T00:00:00Z</time></trkpt>
<trkpt lat="46.51528330" lon="6.51285000"><ele>373</ele><time>1989-12-31T00:00:00Z</time></trkpt>
<trkpt lat="46.51616670" lon="6.51346670"><ele>374</ele><time>1989-12-31T00:00:00Z</time></trkpt>
<trkpt lat="46.51631670" lon="6.51373330"><ele>374</ele><time>1989-12-31T00:00:00Z</time></trkpt>
<trkpt lat="46.51633330" lon="6.51376670"><ele>374</ele><time>1989-12-31T00:00:00Z</time></trkpt>
<trkpt lat="46.51635000" lon="6.51383330"><ele>374</ele><time>1989-12-31T00:00:00Z</time></trkpt>
<trkpt lat="46.51643330" lon="6.51405000"><ele>375</ele><time>1989-12-31T00:00:00Z</time></trkpt>
<trkpt lat="46.51671670" lon="6.51501670"><ele>375</ele><time>1989-12-31T00:00:00Z</time></trkpt>
<trkpt lat="46.51708330" lon="6.51508330"><ele>377</ele><time>1989-12-31T00:00:00Z</time></trkpt>
<trkpt lat="46.51736670" lon="6.51525000"><ele>376</ele><time>1989-12-31T00:00:00Z</time></trkpt>
<trkpt lat="46.51755000" lon="6.51531670"><ele>377</ele><time>1989-12-31T00:00:00Z</time></trkpt>
<trkpt lat="46.51763330" lon="6.51591670"><ele>377</ele><time>1989-12-31T00:00:00Z</time></trkpt>
<trkpt lat="46.51781670" lon="6.51761670"><ele>378</ele><time>1989-12-31T00:00:00Z</time></trkpt>
<trkpt lat="46.51788330" lon="6.51883330"><ele>383</ele><time>1989-12-31T00:00:00Z</time></trkpt>
<trkpt lat="46.51786670" lon="6.52015000"><ele>387</ele><time>1989-12-31T00:00:00Z</time></trkpt>
<trkpt lat="46.51781670" lon="6.52140000"><ele>389</ele><time>1989-12-31T00:00:00Z</time></trkpt>
<trkpt lat="46.51775000" lon="6.52280000"><ele>393</ele><time>1989-12-31T00:00:00Z</time></trkpt>
<trkpt lat="46.51768330" lon="6.52393330"><ele>399</ele><time>1989-12-31T00:00:00Z</time></trkpt>
<trkpt lat="46.51758330" lon="6.52508330"><ele>400</ele><time>1989-12-31T00:00:00Z</time></trkpt>
<trkpt lat="46.51735000" lon="6.52635000"><ele>400</ele><time>1989-12-31T00:00:00Z</time></trkpt>
<trkpt lat="46.51706670" lon="6.52778330"><ele>397</ele><time>1989-12-31T00:00:00Z</time></trkpt>
<trkpt lat="46.51695000" lon="6.52826670"><ele>397</ele><time>1989-12-31T00:00:00Z</time></trkpt>
<trkpt lat="46.51676670" lon="6.52840000"><ele>396</ele><time>1989-12-31T00:00:00Z</time></trkpt>
<trkpt lat="46.51581670" lon="6.52793330"><ele>391</ele><time>1989-12-31T00:00:00Z</time></trkpt>
<trkpt lat="46.51468330" lon="6.52741670"><ele>387</ele><time>1989-12-31T00:00:00Z</time></trkpt>
<trkpt lat="46.51350000" lon="6.52690000"><ele>376</ele><time>1989-12-31T00:00:00Z</time></trkpt>
<trkpt lat="46.51341670" lon="6.52685000"><ele>376</ele><time>1989-12-31T00:00:00Z</time></trkpt>
<trkpt lat="46.51305000" lon="6.52720000"><ele>374</ele><time>1989-12-31T00:00:00Z</time></trkpt>
<trkpt lat="46.51291670" lon="6.52743330"><ele>374</ele><time>1989-12-31T00:00:00Z</time></trkpt>
<trkpt lat="46.51243330" lon="6.52846670"><ele>373</ele><time>1989-12-31T00:00:00Z</time></trkpt>
<trkpt lat="46.51191670" lon="6.52943330"><ele>369</ele><time>1989-12-31T00:00:00Z</time></trkpt>
<trkpt lat="46.51176670" lon="6.52966670"><ele>371</ele><time>1989-12-31T00:00:00Z</time></trkpt>
<trkpt lat="46.51118330" lon="6.53085000"><ele>372</ele><time>1989-12-31T00:00:00Z</time></trkpt>
<trkpt lat="46.51101670" lon="6.53110000"><ele>372</ele><time>1989-12-31T00:00:00Z</time></trkpt>
<trkpt lat="46.51081670" lon="6.53145000"><ele>372</ele><time>1989-12-31T00:00:00Z</time></trkpt>
<trkpt lat="46.51020000" lon="6.53258330"><ele>372</ele><time>1989-12-31T00:00:00Z</time></trkpt>
<trkpt lat="46.51000000" lon="6.53288330"><ele>372</ele><time>1989-12-31T00:00:00Z</time></trkpt>
<trkpt lat="46.50968330" lon="6.53346670"><ele>372</ele><time>1989-12-31T00:00:00Z</time></trkpt>
<trkpt lat="46.50948330" lon="6.53378330"><ele>373</ele><time>1989-12-31T00:00:00Z</time></trkpt>
<trkpt lat="46.50945000" lon="6.53390000"><ele>373</ele><time>1989-12-31T00:00:00Z</time></trkpt>
<trkpt lat="46.50881670" lon="6.53495000"><ele>372</ele><time>1989-12-31T00:00:00Z</time></trkpt>
<trkpt lat="46.50826670" lon="6.53568330"><ele>372</ele><time>1989-12-31T00:00:00Z</time></trkpt>
<trkpt lat="46.50815000" lon="6.53585000"><ele>372</ele><time>1989-12-31T00:00:00Z</time></trkpt>
<trkpt lat="46.50788330" lon="6.53695000"><ele>373</ele><time>1989-12-31T00:00:00Z</time></trkpt>
<trkpt lat="46.50775000" lon="6.53741670"><ele>373</ele><time>1989-12-31T00:00:00Z</time></trkpt>
<trkpt lat="46.50766670" lon="6.53791670"><ele>373</ele><time>1989-12-31T00:00:00Z</time></trkpt>
<trkpt lat="46.50766670" lon="6.53816670"><ele>373</ele><time>1989-12-31T00:00:00Z</time></trkpt>
<trkpt lat="46.50775000" lon="6.53866670"><ele>374</ele><time>1989-12-31T00:00:00Z</time></trkpt>
<trkpt lat="46.50753330" lon="6.53911670"><ele>373</ele><time>1989-12-31T00:00:00Z</time></trkpt>
<trkpt lat="46.50753330" lon="6.53916670"><ele>372</ele><time>1989-12-31T00:00:00Z</time></trkpt>
<trkpt lat="46.50753330" lon="6.53916670"><ele>372</ele><time>1989-12-31T00:00:00Z</time></trkpt>
<trkpt lat="46.50796670" lon="6.53886670"><ele>373</ele><time>1989-12-31T00:00:00Z</time></trkpt>
<trkpt lat="46.50843330" lon="6.53900000"><ele>373</ele><time>1989-12-31T00:00:00Z</time></trkpt>
<trkpt lat="46.50830000" lon="6.53921670"><ele>374</ele><time>1989-12-31T00:00:00Z</time></trkpt>
<trkpt lat="46.50830000" lon="6.53921670"><ele>374</ele><time>1989-12-31T00:00:00Z</time></trkpt>
<trkpt lat="46.50855000" lon="6.53905000"><ele>374</ele><time>1989-12-31T00:00:00Z</time></trkpt>
<trkpt lat="46.50878330" lon="6.53913330"><ele>383</ele><time>1989-12-31T00:00:00Z</time></trkpt>
<trkpt lat="46.50916670" lon="6.53998330"><ele>384</ele><time>1989-12-31T00:00:00Z</time></trkpt>
<trkpt lat="46.50948330" lon="6.54218330"><ele>383</ele><time>1989-12-31T00:00:00Z</time></trkpt>
<trkpt lat="46.50953330" lon="6.54273330"><ele>381</ele><time>1989-12-31T00:00:00Z</time></trkpt>
<trkpt lat="46.50968330" lon="6.54331670"><ele>381</ele><time>1989-12-31T00:00:00Z</time></trkpt>
<trkpt lat="46.51018330" lon="6.54456670"><ele>376</ele><time>1989-12-31T00:00:00Z</time></trkpt>
<trkpt lat="46.51020000" lon="6.54458330"><ele>376</ele><time>1989-12-31T00:00:00Z</time></trkpt>
<trkpt lat="46.51066670" lon="6.54483330"><ele>376</ele><time>1989-12-31T00:00:00Z</time></trkpt>
<trkpt lat="46.51073330" lon="6.54488330"><ele>376</ele><time>1989-12-31T00:00:00Z</time></trkpt>
<trkpt lat="46.51100000" lon="6.54498330"><ele>376</ele><time>1989-12-31T00:00:00Z</time></trkpt>
<trkpt lat="46.51140000" lon="6.54498330"><ele>378</ele><time>1989-12-31T00:00:00Z</time></trkpt>
<trkpt lat="46.51203330" lon="6.54450000"><ele>376</ele><time>1989-12-31T00:00:00Z</time></trkpt>
<trkpt lat="46.51280000" lon="6.54356670"><ele>378</ele><time>1989-12-31T00:00:00Z</time></trkpt>
<trkpt lat="46.51326670" lon="6.54303330"><ele>383</ele><time>1989-12-31T00:00:00Z</time></trkpt>
<trkpt lat="46.51333330" lon="6.54300000"><ele>384</ele><time>1989-12-31T00:00:00Z</time></trkpt>
<trkpt lat="46.51333330" lon="6.54300000"><ele>387</ele><time>1989-12-31T00:00:00Z</time></trkpt>
<trkpt lat="46.51333330" lon="6.54300000"><ele>386</ele><time>1989-12-31T00:00:00Z</time></trkpt>
<trkpt lat="46.51371670" lon="6.54175000"><ele>385</ele><time>1989-12-31T00:00:00Z</time></trkpt>
<trkpt lat="46.51371670" lon="6.54175000"><ele>386</ele><time>1989-12-31T00:00:00Z</time></trkpt>
<trkpt lat="46.51410000" lon="6.54123330"><ele>387</ele><time>1989-12-31T00:00:00Z</time></trkpt>
<trkpt lat="46.51475000" lon="6.54140000"><ele>391</ele><time>1989-12-31T00:00:00Z</time></trkpt>
<trkpt lat="46.51543330" lon="6.54225000"><ele>388</ele><time>1989-12-31T00:00:00Z</time></trkpt>
<trkpt lat="46.51565000" lon="6.54245000"><ele>387</ele><time>1989-12-31T00:00:00Z</time></trkpt>
<trkpt lat="46.51608330" lon="6.54250000"><ele>385</ele><time>1989-12-31T00:00:00Z</time></trkpt>
<trkpt lat="46.51706670" lon="6.54228330"><ele>387</ele><time>1989-12-31T00:00:00Z</time></trkpt>
<trkpt lat="46.51815000" lon="6.54220000"><ele>388</ele><time>1989-12-31T00:00:00Z</time></trkpt>
<trkpt lat="46.51908330" lon="6.54215000"><ele>390</ele><time>1989-12-31T00:00:00Z</time></trkpt>
<trkpt lat="46.51938330" lon="6.54215000"><ele>391</ele><time>1989-12-31T00:00:00Z</time></trkpt>
<trkpt lat="46.51971670" lon="6.54213330"><ele>390</ele><time>1989-12-31T00:00:00Z</time></trkpt>
<trkpt lat="46.51976670" lon="6.54233330"><ele>390</ele><time>1989-12-31T00:00:00Z</time></trkpt>
<trkpt lat="46.51966670" lon="6.54310000"><ele>388</ele><time>1989-12-31T00:00:00Z</time></trkpt>
<trkpt lat="46.51980000" lon="6.54330000"><ele>388</ele><time>1989-12-31T00:00:00Z</time></trkpt>
<trkpt lat="46.52081670" lon="6.54346670"><ele>388</ele><time>1989-12-31T00:00:00Z</time></trkpt>
<trkpt lat="46.52191670" lon="6.54366670"><ele>388</ele><time>1989-12-31T00:00:00Z</time></trkpt>
<trkpt lat="46.52285000" lon="6.54361670"><ele>388</ele><time>1989-12-31T00:00:00Z</time></trkpt>
<trkpt lat="46.52365000" lon="6.54336670"><ele>387</ele><time>1989-12-31T00:00:00Z</time></trkpt>
<trkpt lat="46.52378330" lon="6.54330000"><ele>387</ele><time>1989-12-31T00:00:00Z</time></trkpt>
<trkpt lat="46.52385000" lon="6.54360000"><ele>384</ele><time>1989-12-31T00:00:00Z</time></trkpt>
<trkpt lat="46.52393330" lon="6.54401670"><ele>379</ele><time>1989-12-31T00:00:00Z</time></trkpt>
<trkpt lat="46.52411670" lon="6.54406670"><ele>379</ele><time>1989-12-31T00:00:00Z</time></trkpt>
<trkpt lat="46.52536670" lon="6.54413330"><ele>383</ele><time>1989-12-31T00:00:00Z</time></trkpt>
<trkpt lat="46.52631670" lon="6.54445000"><ele>384</ele><time>1989-12-31T00:00:00Z</time></trkpt>
<trkpt lat="46.52690000" lon="6.54478330"><ele>384</ele><time>1989-12-31T00:00:00Z</time></trkpt>
<trkpt lat="46.52738330" lon="6.54511670"><ele>384</ele><time>1989-12-31T00:00:00Z</time></trkpt>
<trkpt lat="46.52821670" lon="6.54583330"><ele>384</ele><time>1989-12-31T00:00:00Z</time></trkpt>
<trkpt lat="46.52858330" lon="6.54618330"><ele>384</ele><time>1989-12-31T00:00:00Z</time></trkpt>
<trkpt lat="46.52875000" lon="6.54580000"><ele>384</ele><time>1989-12-31T00:00:00Z</time></trkpt>
<trkpt lat="46.52900000" lon="6.54475000"><ele>386</ele><time>1989-12-31T00:00:00Z</time></trkpt>
<trkpt lat="46.52925000" lon="6.54390000"><ele>388</ele><time>1989-12-31T00:00:00Z</time></trkpt>
<trkpt lat="46.52918330" lon="6.54376670"><ele>388</ele><time>1989-12-31T00:00:00Z</time></trkpt>
<trkpt lat="46.52918330" lon="6.54376670"><ele>388</ele><time>1989-12-31T00:00:00Z</time></trkpt>
<trkpt lat="46.52968330" lon="6.54471670"><ele>388</ele><time>1989-12-31T00:00:00Z</time></trkpt>
<trkpt lat="46.53005000" lon="6.54580000"><ele>388</ele><time>1989-12-31T00:00:00Z</time></trkpt>
<trkpt lat="46.53091670" lon="6.54818330"><ele>387</ele><time>1989-12-31T00:00:00Z</time></trkpt>
<trkpt lat="46.53143330" lon="6.54943330"><ele>387</ele><time>1989-12-31T00:00:00Z</time></trkpt>
<trkpt lat="46.53148330" lon="6.54953330"><ele>387</ele><time>1989-12-31T00:00:00Z</time></trkpt>
<trkpt lat="46.53155000" lon="6.54968330"><ele>387</ele><time>1989-12-31T00:00:00Z</time></trkpt>
<trkpt lat="46.53208330" lon="6.55056670"><ele>388</ele><time>1989-12-31T00:00:00Z</time></trkpt>
<trkpt lat="46.53295000" lon="6.55205000"><ele>390</ele><time>1989-12-31T00:00:00Z</time></trkpt>
<trkpt lat="46.53345000" lon="6.55243330"><ele>390</ele><time>1989-12-31T00:00:00Z</time></trkpt>
<trkpt lat="46.53421670" lon="6.55245000"><ele>390</ele><time>1989-12-31T00:00:00Z</time></trkpt>
<trkpt lat="46.53430000" lon="6.55250000"><ele>390</ele><time>1989-12-31T00:00:00Z</time></trkpt>
<trkpt lat="46.53448330" lon="6.55265000"><ele>391</ele><time>1989-12-31T00:00:00Z</time></trkpt>
<trkpt lat="46.53511670" lon="6.55281670"><ele>388</ele><time>1989-12-31T00:00:00Z</time></trkpt>
<trkpt lat="46.53546670" lon="6.55251670"><ele>389</ele><time>1989-12-31T00:00:00Z</time></trkpt>
<trkpt lat="46.53556670" lon="6.55245000"><ele>388</ele><time>1989-12-31T00:00:00Z</time></trkpt>
<trkpt lat="46.53543330" lon="6.55256670"><ele>388</ele><time>1989-12-31T00:00:00Z</time></trkpt>
<trkpt lat="46.53531670" lon="6.55265000"><ele>388</ele><time>1989-12-31T00:00:00Z</time></trkpt>
<trkpt lat="46.53541670" lon="6.55256670"><ele>388</ele><time>1989-12-31T00:00:00Z</time></trkpt>
<trkpt lat="46.53556670" lon="6.55243330"><ele>389</ele><time>1989-12-31T00:00:00Z</time></trkpt>
<trkpt lat="46.53536670" lon="6.55188330"><ele>389</ele><time>1989-12-31T00:00:00Z</time></trkpt>
<trkpt lat="46.53523330" lon="6.55058330"><ele>389</ele><time>1989-12-31T00:00:00Z</time></trkpt>
<trkpt lat="46.53536670" lon="6.55040000"><ele>388</ele><time>1989-12-31T00:00:00Z</time></trkpt>
<trkpt lat="46.53571670" lon="6.55010000"><ele>389</ele><time>1989-12-31T00:00:00Z</time></trkpt>
<trkpt lat="46.53595000" lon="6.55010000"><ele>388</ele><time>1989-12-31T00:00:00Z</time></trkpt>
<trkpt lat="46.53606670" lon="6.55011670"><ele>388</ele><time>1989-12-31T00:00:00Z</time></trkpt>
<trkpt lat="46.53613330" lon="6.54975000"><ele>389</ele><time>1989-12-31T00:00:00Z</time></trkpt>
<trkpt lat="46.53611670" lon="6.54943330"><ele>388</ele><time>1989-12-31T00:00:00Z</time></trkpt>
<trkpt lat="46.53623330" lon="6.54930000"><ele>388</ele><time>1989-12-31T00:00:00Z</time></trkpt>
<trkpt lat="46.53626670" lon="6.54916670"><ele>388</ele><time>1989-12-31T00:00:00Z</time></trkpt>
<trkpt lat="46.53633330" lon="6.54856670"><ele>390</ele><time>1989-12-31T00:00:00Z</time></trkpt>
<trkpt lat="46.53646670" lon="6.54846670"><ele>390</ele><time>1989-12-31T00:00:00Z</time></trkpt>
<trkpt lat="46.53731670" lon="6.54871670"><ele>392</ele><time>1989-12-31T00:00:00Z</time></trkpt>
<trkpt lat="46.53836670" lon="6.54891670"><ele>396</ele><time>1989-12-31T00:00:00Z</time></trkpt>
<trkpt lat="46.53845000" lon="6.54891670"><ele>396</ele><time>1989-12-31T00:00:00Z</time></trkpt>
<trkpt lat="46.53930000" lon="6.54878330"><ele>395</ele><time>1989-12-31T00:00:00Z</time></trkpt>
<trkpt lat="46.53976670" lon="6.54883330"><ele>395</ele><time>1989-12-31T00:00:00Z</time></trkpt>
<trkpt lat="46.53981670" lon="6.54868330"><ele>395</ele><time>1989-12-31T00:00:00Z</time></trkpt>
<trkpt lat="46.54001670" lon="6.54800000"><ele>400</ele><time>1989-12-31T00:00:00Z</time></trkpt>
<trkpt lat="46.54035000" lon="6.54755000"><ele>403</ele><time>1989-12-31T00:00:00Z</time></trkpt>
<trkpt lat="46.54080000" lon="6.54740000"><ele>409</ele><time>1989-12-31T00:00:00Z</time></trkpt>
<trkpt lat="46.54118330" lon="6.54725000"><ele>411</ele><time>1989-12-31T00:00:00Z</time></trkpt>
<trkpt lat="46.54138330" lon="6.54718330"><ele>412</ele><time>1989-12-31T00:00:00Z</time></trkpt>
<trkpt lat="46.54138330" lon="6.54718330"><ele>414</ele><time>1989-12-31T00:00:00Z</time></trkpt>
<trkpt lat="46.54138330" lon="6.54718330"><ele>413</ele><time>1989-12-31T00:00:00Z</time></trkpt>
<trkpt lat="46.54165000" lon="6.54710000"><ele>413</ele><time>1989-12-31T00:00:00Z</time></trkpt>
<trkpt lat="46.54273330" lon="6.54646670"><ele>412</ele><time>1989-12-31T00:00:00Z</time></trkpt>
<trkpt lat="46.54300000" lon="6.54628330"><ele>413</ele><time>1989-12-31T00:00:00Z</time></trkpt>
<trkpt lat="46.54411670" lon="6.54553330"><ele>413</ele><time>1989-12-31T00:00:00Z</time></trkpt>
<trkpt lat="46.54440000" lon="6.54533330"><ele>413</ele><time>1989-12-31T00:00:00Z</time></trkpt>
<trkpt lat="46.54568330" lon="6.54393330"><ele>413</ele><time>1989-12-31T00:00:00Z</time></trkpt>
<trkpt lat="46.54710000" lon="6.54265000"><ele>409</ele><time>1989-12-31T00:00:00Z</time></trkpt>
<trkpt lat="46.54825000" lon="6.54225000"><ele>411</ele><time>1989-12-31T00:00:00Z</time></trkpt>
<trkpt lat="46.54836670" lon="6.54191670"><ele>410</ele><time>1989-12-31T00:00:00Z</time></trkpt>
<trkpt lat="46.54863330" lon="6.54153330"><ele>411</ele><time>1989-12-31T00:00:00Z</time></trkpt>
<trkpt lat="46.54886670" lon="6.54130000"><ele>411</ele><time>1989-12-31T00:00:00Z</time></trkpt>
<trkpt lat="46.54996670" lon="6.54080000"><ele>411</ele><time>1989-12-31T00:00:00Z</time></trkpt>
<trkpt lat="46.55001670" lon="6.54076670"><ele>411</ele><time>1989-12-31T00:00:00Z</time></trkpt>
<trkpt lat="46.55061670" lon="6.54028330"><ele>406</ele><time>1989-12-31T00:00:00Z</time></trkpt>
<trkpt lat="46.55068330" lon="6.54026670"><ele>405</ele><time>1989-12-31T00:00:00Z</time></trkpt>
<trkpt lat="46.55050000" lon="6.54023330"><ele>404</ele><time>1989-12-31T00:00:00Z</time></trkpt>
<trkpt lat="46.55016670" lon="6.53971670"><ele>403</ele><time>1989-12-31T00:00:00Z</time></trkpt>
<trkpt lat="46.55013330" lon="6.53935000"><ele>401</ele><time>1989-12-31T00:00:00Z</time></trkpt>
<trkpt lat="46.55010000" lon="6.53921670"><ele>401</ele><time>1989-12-31T00:00:00Z</time></trkpt>
<trkpt lat="46.54990000" lon="6.53815000"><ele>401</ele><time>1989-12-31T00:00:00Z</time></trkpt>
<trkpt lat="46.54990000" lon="6.53806670"><ele>403</ele><time>1989-12-31T00:00:00Z</time></trkpt>
<trkpt lat="46.54990000" lon="6.53806670"><ele>421</ele><time>1989-12-31T00:00:00Z</time></trkpt>
<trkpt lat="46.55110000" lon="6.53576670"><ele>420</ele><time>1989-12-31T00:00:00Z</time></trkpt>
<trkpt lat="46.55165000" lon="6.53401670"><ele>418</ele><time>1989-12-31T00:00:00Z</time></trkpt>
<trkpt lat="46.55233330" lon="6.53340000"><ele>418</ele><time>1989-12-31T00:00:00Z</time></trkpt>
<trkpt lat="46.55366670" lon="6.53105000"><ele>418</ele><time>1989-12-31T00:00:00Z</time></trkpt>
<trkpt lat="46.55441670" lon="6.53038330"><ele>418</ele><time>1989-12-31T00:00:00Z</time></trkpt>
<trkpt lat="46.55493330" lon="6.52990000"><ele>418</ele><time>1989-12-31T00:00:00Z</time></trkpt>
<trkpt lat="46.55538330" lon="6.52875000"><ele>417</ele><time>1989-12-31T00:00:00Z</time></trkpt>
<trkpt lat="46.55585000" lon="6.52830000"><ele>417</ele><time>1989-12-31T00:00:00Z</time></trkpt>
<trkpt lat="46.55640000" lon="6.52778330"><ele>420</ele><time>1989-12-31T00:00:00Z</time></trkpt>
<trkpt lat="46.55808330" lon="6.52636670"><ele>420</ele><time>1989-12-31T00:00:00Z</time></trkpt>
<trkpt lat="46.55863330" lon="6.52610000"><ele>420</ele><time>1989-12-31T00:00:00Z</time></trkpt>
<trkpt lat="46.55940000" lon="6.52591670"><ele>418</ele><time>1989-12-31T00:00:00Z</time></trkpt>
<trkpt lat="46.56015000" lon="6.52595000"><ele>415</ele><time>1989-12-31T00:00:00Z</time></trkpt>
<trkpt lat="46.56023330" lon="6.52595000"><ele>415</ele><time>1989-12-31T00:00:00Z</time></trkpt>
<trkpt lat="46.56021670" lon="6.52575000"><ele>415</ele><time>1989-12-31T00:00:00Z</time></trkpt>
<trkpt lat="46.56006670" lon="6.52488330"><ele>415</ele><time>1989-12-31T00:00:00Z</time></trkpt>
<trkpt lat="46.55986670" lon="6.52445000"><ele>415</ele><time>1989-12-31T00:00:00Z</time></trkpt>
<trkpt lat="46.55953330" lon="6.52441670"><ele>418</ele><time>1989-12-31T00:00:00Z</time></trkpt>
<trkpt lat="46.55776670" lon="6.52261670"><ele>420</ele><time>1989-12-31T00:00:00Z</time></trkpt>
<trkpt lat="46.55768330" lon="6.52236670"><ele>420</ele><time>1989-12-31T00:00:00Z</time></trkpt>
<trkpt lat="46.55733330" lon="6.52145000"><ele>423</ele><time>1989-12-31T00:00:00Z</time></trkpt>
<trkpt lat="46.55740000" lon="6.52146670"><ele>423</ele><time>1989-12-31T00:00:00Z</time></trkpt>
<trkpt lat="46.55741670" lon="6.52143330"><ele>424</ele><time>1989-12-31T00:00:00Z</time></trkpt>
<trkpt lat="46.55711670" lon="6.52091670"><ele>424</ele><time>1989-12-31T00:00:00Z</time></trkpt>
<trkpt lat="46.55656670" lon="6.51993330"><ele>424</ele><time>1989-12-31T00:00:00Z</time></trkpt>
<trkpt lat="46.55620000" lon="6.51938330"><ele>424</ele><time>1989-12-31T00:00:00Z</time></trkpt>
<trkpt lat="46.55580000" lon="6.51876670"><ele>424</ele><time>1989-12-31T00:00:00Z</time></trkpt>
<trkpt lat="46.55438330" lon="6.51658330"><ele>424</ele><time>1989-12-31T00:00:00Z</time></trkpt>
<trkpt lat="46.55366670" lon="6.51606670"><ele>427</ele><time>1989-12-31T00:00:00Z</time></trkpt>
<trkpt lat="46.55358330" lon="6.51600000"><ele>427</ele><time>1989-12-31T00:00:00Z</time></trkpt>
<trkpt lat="46.55330000" lon="6.51593330"><ele>426</ele><time>1989-12-31T00:00:00Z</time></trkpt>
<trkpt lat="46.55311670" lon="6.51546670"><ele>430</ele><time>1989-12-31T00:00:00Z</time></trkpt>
<trkpt lat="46.55270000" lon="6.51496670"><ele>435</ele><time>1989-12-31T00:00:00Z</time></trkpt>
<trkpt lat="46.55233330" lon="6.51466670"><ele>435</ele><time>1989-12-31T00:00:00Z</time></trkpt>
<trkpt lat="46.55238330" lon="6.51373330"><ele>434</ele><time>1989-12-31T00:00:00Z</time></trkpt>
<trkpt lat="46.55240000" lon="6.51321670"><ele>433</ele><time>1989-12-31T00:00:00Z</time></trkpt>
<trkpt lat="46.55241670" lon="6.51278330"><ele>433</ele><time>1989-12-31T00:00:00Z</time></trkpt>
<trkpt lat="46.55261670" lon="6.51165000"><ele>431</ele><time>1989-12-31T00:00:00Z</time></trkpt>
<trkpt lat="46.55270000" lon="6.51121670"><ele>434</ele><time>1989-12-31T00:00:00Z</time></trkpt>
<trkpt lat="46.55313330" lon="6.51098330"><ele>438</ele><time>1989-12-31T00:00:00Z</time></trkpt>
<trkpt lat="46.55365000" lon="6.51050000"><ele>441</ele><time>1989-12-31T00:00:00Z</time></trkpt>
<trkpt lat="46.55413330" lon="6.51008330"><ele>446</ele><time>1989-12-31T00:00:00Z</time></trkpt>
<trkpt lat="46.55465000" lon="6.50995000"><ele>449</ele><time>1989-12-31T00:00:00Z</time></trkpt>
<trkpt lat="46.55465000" lon="6.50995000"><ele>449</ele><time>1989-12-31T00:00:00Z</time></trkpt>
<trkpt lat="46.55478330" lon="6.51000000"><ele>450</ele><time>1989-12-31T00:00:00Z</time></trkpt>
<trkpt lat="46.55486670" lon="6.50981670"><ele>450</ele><time>1989-12-31T00:00:00Z</time></trkpt>
<trkpt lat="46.55530000" lon="6.50966670"><ele>450</ele><time>1989-12-31T00:00:00Z</time></trkpt>
<trkpt lat="46.55535000" lon="6.50936670"><ele>450</ele><time>1989-12-31T00:00:00Z</time></trkpt>
<trkpt lat="46.55520000" lon="6.50911670"><ele>451</ele><time>1989-12-31T00:00:00Z</time></trkpt>
<trkpt lat="46.55471670" lon="6.50883330"><ele>453</ele><time>1989-12-31T00:00:00Z</time></trkpt>
<trkpt lat="46.55453330" lon="6.50873330"><ele>453</ele><time>1989-12-31T00:00:00Z</time></trkpt>
<trkpt lat="46.55448330" lon="6.50870000"><ele>453</ele><time>1989-12-31T00:00:00Z</time></trkpt>
<trkpt lat="46.55440000" lon="6.50821670"><ele>454</ele><time>1989-12-31T00:00:00Z</time></trkpt>
<trkpt lat="46.55440000" lon="6.50711670"><ele>452</ele><time>1989-12-31T00:00:00Z</time></trkpt>
<trkpt lat="46.55440000" lon="6.50626670"><ele>451</ele><time>1989-12-31T00:00:00Z</time></trkpt>
<trkpt lat="46.55423330" lon="6.50591670"><ele>451</ele><time>1989-12-31T00:00:00Z</time></trkpt>
<trkpt lat="46.55386670" lon="6.50570000"><ele>452</ele><time>1989-12-31T00:00:00Z</time></trkpt>
<trkpt lat="46.55311670" lon="6.50538330"><ele>454</ele><time>1989-12-31T00:00:00Z</time></trkpt>
<trkpt lat="46.55216670" lon="6.50495000"><ele>460</ele><time>1989-12-31T00:00:00Z</time></trkpt>
<trkpt lat="46.55128330" lon="6.50443330"><ele>463</ele><time>1989-12-31T00:00:00Z</time></trkpt>
<trkpt lat="46.55045000" lon="6.50391670"><ele>465</ele><time>1989-12-31T00:00:00Z</time></trkpt>
<trkpt lat="46.54980000" lon="6.50346670"><ele>470</ele><time>1989-12-31T00:00:00Z</time></trkpt>
<trkpt lat="46.54908330" lon="6.50295000"><ele>472</ele><time>1989-12-31T00:00:00Z</time></trkpt>
<trkpt lat="46.54848330" lon="6.50253330"><ele>471</ele><time>1989-12-31T00:00:00Z</time></trkpt>
<trkpt lat="46.54808330" lon="6.50228330"><ele>471</ele><time>1989-12-31T00:00:00Z</time></trkpt>
<trkpt lat="46.54790000" lon="6.50220000"><ele>471</ele><time>1989-12-31T00:00:00Z</time></trkpt>
<trkpt lat="46.54703330" lon="6.50196670"><ele>473</ele><time>1989-12-31T00:00:00Z</time></trkpt>
<trkpt lat="46.54621670" lon="6.50213330"><ele>475</ele><time>1989-12-31T00:00:00Z</time></trkpt>
<trkpt lat="46.54551670" lon="6.50206670"><ele>475</ele><time>1989-12-31T00:00:00Z</time></trkpt>
<trkpt lat="46.54550000" lon="6.50203330"><ele>475</ele><time>1989-12-31T00:00:00Z</time></trkpt>
<trkpt lat="46.54545000" lon="6.50201670"><ele>475</ele><time>1989-12-31T00:00:00Z</time></trkpt>
<trkpt lat="46.54501670" lon="6.50255000"><ele>474</ele><time>1989-12-31T00:00:00Z</time></trkpt>
<trkpt lat="46.54456670" lon="6.50351670"><ele>471</ele><time>1989-12-31T00:00:00Z</time></trkpt>
<trkpt lat="46.54448330" lon="6.50405000"><ele>468</ele><time>1989-12-31T00:00:00Z</time></trkpt>
<trkpt lat="46.54446670" lon="6.50430000"><ele>466</ele><time>1989-12-31T00:00:00Z</time></trkpt>
<trkpt lat="46.54438330" lon="6.50540000"><ele>460</ele><time>1989-12-31T00:00:00Z</time></trkpt>
<trkpt lat="46.54420000" lon="6.50728330"><ele>448</ele><time>1989-12-31T00:00:00Z</time></trkpt>
<trkpt lat="46.54403330" lon="6.50800000"><ele>445</ele><time>1989-12-31T00:00:00Z</time></trkpt>
<trkpt lat="46.54388330" lon="6.50858330"><ele>443</ele><time>1989-12-31T00:00:00Z</time></trkpt>
<trkpt lat="46.54363330" lon="6.50858330"><ele>443</ele><time>1989-12-31T00:00:00Z</time></trkpt>
<trkpt lat="46.54355000" lon="6.50845000"><ele>443</ele><time>1989-12-31T00:00:00Z</time></trkpt>
<trkpt lat="46.54263330" lon="6.50705000"><ele>446</ele><time>1989-12-31T00:00:00Z</time></trkpt>
<trkpt lat="46.54206670" lon="6.50673330"><ele>449</ele><time>1989-12-31T00:00:00Z</time></trkpt>
<trkpt lat="46.54165000" lon="6.50653330"><ele>450</ele><time>1989-12-31T00:00:00Z</time></trkpt>
<trkpt lat="46.54151670" lon="6.50645000"><ele>450</ele><time>1989-12-31T00:00:00Z</time></trkpt>
<trkpt lat="46.54058330" lon="6.50570000"><ele>454</ele><time>1989-12-31T00:00:00Z</time></trkpt>
<trkpt lat="46.53995000" lon="6.50501670"><ele>453</ele><time>1989-12-31T00:00:00Z</time></trkpt>
<trkpt lat="46.53948330" lon="6.50471670"><ele>456</ele><time>1989-12-31T00:00:00Z</time></trkpt>
<trkpt lat="46.53903330" lon="6.50441670"><ele>459</ele><time>1989-12-31T00:00:00Z</time></trkpt>
<trkpt lat="46.53843330" lon="6.50396670"><ele>463</ele><time>1989-12-31T00:00:00Z</time></trkpt>
<trkpt lat="46.53778330" lon="6.50343330"><ele>465</ele><time>1989-12-31T00:00:00Z</time></trkpt>
<trkpt lat="46.53706670" lon="6.50265000"><ele>466</ele><time>1989-12-31T00:00:00Z</time></trkpt>
<trkpt lat="46.53640000" lon="6.50216670"><ele>467</ele><time>1989-12-31T00:00:00Z</time></trkpt>
<trkpt lat="46.53565000" lon="6.50183330"><ele>468</ele><time>1989-12-31T00:00:00Z</time></trkpt>
<trkpt lat="46.53480000" lon="6.50146670"><ele>472</ele><time>1989-12-31T00:00:00Z</time></trkpt>
<trkpt lat="46.53470000" lon="6.50136670"><ele>472</ele><time>1989-12-31T00:00:00Z</time></trkpt>
<trkpt lat="46.53381670" lon="6.50090000"><ele>474</ele><time>1989-12-31T00:00:00Z</time></trkpt>
<trkpt lat="46.53303330" lon="6.50071670"><ele>473</ele><time>1989-12-31T00:00:00Z</time></trkpt>
<trkpt lat="46.53208330" lon="6.50060000"><ele>473</ele><time>1989-12-31T00:00:00Z</time></trkpt>
<trkpt lat="46.53173330" lon="6.50050000"><ele>474</ele><time>1989-12-31T00:00:00Z</time></trkpt>
<trkpt lat="46.53171670" lon="6.50011670"><ele>474</ele><time>1989-12-31T00:00:00Z</time></trkpt>
<trkpt lat="46.53168330" lon="6.50003330"><ele>474</ele><time>1989-12-31T00:00:00Z</time></trkpt>
<trkpt lat="46.53113330" lon="6.49838330"><ele>468</ele><time>1989-12-31T00:00:00Z</time></trkpt>
<trkpt lat="46.53056670" lon="6.49768330"><ele>470</ele><time>1989-12-31T00:00:00Z</time></trkpt>
<trkpt lat="46.52993330" lon="6.49706670"><ele>468</ele><time>1989-12-31T00:00:00Z</time></trkpt>
<trkpt lat="46.52976670" lon="6.49698330"><ele>470</ele><time>1989-12-31T00:00:00Z</time></trkpt>
<trkpt lat="46.52976670" lon="6.49698330"><ele>472</ele><time>1989-12-31T00:00:00Z</time></trkpt>
<trkpt lat="46.52941670" lon="6.49733330"><ele>473</ele><time>1989-12-31T00:00:00Z</time></trkpt>
<trkpt lat="46.52938330" lon="6.49738330"><ele>473</ele><time>1989-12-31T00:00:00Z</time></trkpt>
<trkpt lat="46.52911670" lon="6.49763330"><ele>471</ele><time>1989-12-31T00:00:00Z</time></trkpt>
<trkpt lat="46.52893330" lon="6.49773330"><ele>471</ele><time>1989-12-31T00:00:00Z</time></trkpt>
<trkpt lat="46.52815000" lon="6.49806670"><ele>472</ele><time>1989-12-31T00:00:00Z</time></trkpt>
<trkpt lat="46.52768330" lon="6.49821670"><ele>470</ele><time>1989-12-31T00:00:00Z</time></trkpt>
<trkpt lat="46.52683330" lon="6.49846670"><ele>467</ele><time>1989-12-31T00:00:00Z</time></trkpt>
<trkpt lat="46.52653330" lon="6.49858330"><ele>466</ele><time>1989-12-31T00:00:00Z</time></trkpt>
<trkpt lat="46.52625000" lon="6.49855000"><ele>465</ele><time>1989-12-31T00:00:00Z</time></trkpt>
<trkpt lat="46.52613330" lon="6.49828330"><ele>464</ele><time>1989-12-31T00:00:00Z</time></trkpt>
<trkpt lat="46.52611670" lon="6.49813330"><ele>464</ele><time>1989-12-31T00:00:00Z</time></trkpt>
<trkpt lat="46.52575000" lon="6.49658330"><ele>463</ele><time>1989-12-31T00:00:00Z</time></trkpt>
<trkpt lat="46.52535000" lon="6.49421670"><ele>462</ele><time>1989-12-31T00:00:00Z</time></trkpt>
<trkpt lat="46.52511670" lon="6.49316670"><ele>462</ele><time>1989-12-31T00:00:00Z</time></trkpt>
<trkpt lat="46.52495000" lon="6.49288330"><ele>462</ele><time>1989-12-31T00:00:00Z</time></trkpt>
<trkpt lat="46.52476670" lon="6.49243330"><ele>462</ele><time>1989-12-31T00:00:00Z</time></trkpt>
<trkpt lat="46.52466670" lon="6.49188330"><ele>463</ele><time>1989-12-31T00:00:00Z</time></trkpt>
<trkpt lat="46.52466670" lon="6.49188330"><ele>463</ele><time>1989-12-31T00:00:00Z</time></trkpt>
<trkpt lat="46.52433330" lon="6.49181670"><ele>463</ele><time>1989-12-31T00:00:00Z</time></trkpt>
<trkpt lat="46.52335000" lon="6.49158330"><ele>462</ele><time>1989-12-31T00:00:00Z</time></trkpt>
<trkpt lat="46.52328330" lon="6.49131670"><ele>463</ele><time>1989-12-31T00:00:00Z</time></trkpt>
<trkpt lat="46.52283330" lon="6.49075000"><ele>463</ele><time>1989-12-31T00:00:00Z</time></trkpt>
<trkpt lat="46.52266670" lon="6.49048330"><ele>464</ele><time>1989-12-31T00:00:00Z</time></trkpt>
<trkpt lat="46.52220000" lon="6.48941670"><ele>463</ele><time>1989-12-31T00:00:00Z</time></trkpt>
<trkpt lat="46.52201670" lon="6.48906670"><ele>463</ele><time>1989-12-31T00:00:00Z</time></trkpt>
<trkpt lat="46.52170000" lon="6.48860000"><ele>462</ele><time>1989-12-31T00:00:00Z</time></trkpt>
<trkpt lat="46.52170000" lon="6.48851670"><ele>462</ele><time>1989-12-31T00:00:00Z</time></trkpt>
<trkpt lat="46.52176670" lon="6.48810000"><ele>462</ele><time>1989-12-31T00:00:00Z</time></trkpt>
<trkpt lat="46.52178330" lon="6.48806670"><ele>461</ele><time>1989-12-31T00:00:00Z</time></trkpt>
<trkpt lat="46.52178330" lon="6.48806670"><ele>462</ele><time>1989-12-31T00:00:00Z</time></trkpt>
<trkpt lat="46.52201670" lon="6.48711670"><ele>463</ele><time>1989-12-31T00:00:00Z</time></trkpt>
<trkpt lat="46.52200000" lon="6.48675000"><ele>463</ele><time>1989-12-31T00:00:00Z</time></trkpt>
<trkpt lat="46.52198330" lon="6.48620000"><ele>463</ele><time>1989-12-31T00:00:00Z</time></trkpt>
<trkpt lat="46.52183330" lon="6.48556670"><ele>463</ele><time>1989-12-31T00:00:00Z</time></trkpt>
<trkpt lat="46.52158330" lon="6.48530000"><ele>463</ele><time>1989-12-31T00:00:00Z</time></trkpt>
<trkpt lat="46.52156670" lon="6.48525000"><ele>463</ele><time>1989-12-31T00:00:00Z</time></trkpt>
<trkpt lat="46.52140000" lon="6.48503330"><ele>460</ele><time>1989-12-31T00:00:00Z</time></trkpt>
<trkpt lat="46.52123330" lon="6.48480000"><ele>458</ele><time>1989-12-31T00:00:00Z</time></trkpt>
<trkpt lat="46.52101670" lon="6.48445000"><ele>453</ele><time>1989-12-31T00:00:00Z</time></trkpt>
<trkpt lat="46.52056670" lon="6.48343330"><ele>450</ele><time>1989-12-31T00:00:00Z</time></trkpt>
<trkpt lat="46.52015000" lon="6.48293330"><ele>447</ele><time>1989-12-31T00:00:00Z</time></trkpt>
<trkpt lat="46.51990000" lon="6.48273330"><ele>441</ele><time>1989-12-31T00:00:00Z</time></trkpt>
<trkpt lat="46.51971670" lon="6.48265000"><ele>438</ele><time>1989-12-31T00:00:00Z</time></trkpt>
<trkpt lat="46.51963330" lon="6.48261670"><ele>438</ele><time>1989-12-31T00:00:00Z</time></trkpt>
<trkpt lat="46.51906670" lon="6.48255000"><ele>431</ele><time>1989-12-31T00:00:00Z</time></trkpt>
<trkpt lat="46.51900000" lon="6.48233330"><ele>427</ele><time>1989-12-31T00:00:00Z</time></trkpt>
<trkpt lat="46.51878330" lon="6.48198330"><ele>424</ele><time>1989-12-31T00:00:00Z</time></trkpt>
<trkpt lat="46.51850000" lon="6.48171670"><ele>423</ele><time>1989-12-31T00:00:00Z</time></trkpt>
<trkpt lat="46.51820000" lon="6.48121670"><ele>420</ele><time>1989-12-31T00:00:00Z</time></trkpt>
<trkpt lat="46.51813330" lon="6.48120000"><ele>420</ele><time>1989-12-31T00:00:00Z</time></trkpt>
<trkpt lat="46.51813330" lon="6.48120000"><ele>420</ele><time>1989-12-31T00:00:00Z</time></trkpt>
<trkpt lat="46.51813330" lon="6.48120000"><ele>420</ele><time>1989-12-31T00:00:00Z</time></trkpt>
<trkpt lat="46.51851670" lon="6.48106670"><ele>418</ele><time>1989-12-31T00:00:00Z</time></trkpt>
<trkpt lat="46.51856670" lon="6.48055000"><ele>420</ele><time>1989-12-31T00:00:00Z</time></trkpt>
<trkpt lat="46.51841670" lon="6.48016670"><ele>420</ele><time>1989-12-31T00:00:00Z</time></trkpt>
<trkpt lat="46.51835000" lon="6.48003330"><ele>420</ele><time>1989-12-31T00:00:00Z</time></trkpt>
<trkpt lat="46.51818330" lon="6.47971670"><ele>420</ele><time>1989-12-31T00:00:00Z</time></trkpt>
<trkpt lat="46.51743330" lon="6.47925000"><ele>421</ele><time>1989-12-31T00:00:00Z</time></trkpt>
<trkpt lat="46.51688330" lon="6.47895000"><ele>420</ele><time>1989-12-31T00:00:00Z</time></trkpt>
<trkpt lat="46.51685000" lon="6.47870000"><ele>420</ele><time>1989-12-31T00:00:00Z</time></trkpt>
<trkpt lat="46.51743330" lon="6.47791670"><ele>421</ele><time>1989-12-31T00:00:00Z</time></trkpt>
<trkpt lat="46.51768330" lon="6.47755000"><ele>425</ele><time>1989-12-31T00:00:00Z</time></trkpt>
<trkpt lat="46.51761670" lon="6.47726670"><ele>426</ele><time>1989-12-31T00:00:00Z</time></trkpt>
<trkpt lat="46.51695000" lon="6.47690000"><ele>425</ele><time>1989-12-31T00:00:00Z</time></trkpt>
<trkpt lat="46.51628330" lon="6.47666670"><ele>425</ele><time>1989-12-31T00:00:00Z</time></trkpt>
<trkpt lat="46.51575000" lon="6.47660000"><ele>424</ele><time>1989-12-31T00:00:00Z</time></trkpt>
<trkpt lat="46.51523330" lon="6.47660000"><ele>424</ele><time>1989-12-31T00:00:00Z</time></trkpt>
<trkpt lat="46.51500000" lon="6.47641670"><ele>424</ele><time>1989-12-31T00:00:00Z</time></trkpt>
<trkpt lat="46.51451670" lon="6.47586670"><ele>423</ele><time>1989-12-31T00:00:00Z</time></trkpt>
<trkpt lat="46.51381670" lon="6.47508330"><ele>423</ele><time>1989-12-31T00:00:00Z</time></trkpt>
<trkpt lat="46.51320000" lon="6.47436670"><ele>423</ele><time>1989-12-31T00:00:00Z</time></trkpt>
<trkpt lat="46.51265000" lon="6.47375000"><ele>423</ele><time>1989-12-31T00:00:00Z</time></trkpt>
<trkpt lat="46.51168330" lon="6.47270000"><ele>423</ele><time>1989-12-31T00:00:00Z</time></trkpt>
<trkpt lat="46.51080000" lon="6.47171670"><ele>423</ele><time>1989-12-31T00:00:00Z</time></trkpt>
<trkpt lat="46.50983330" lon="6.47063330"><ele>424</ele><time>1989-12-31T00:00:00Z</time></trkpt>
<trkpt lat="46.50901670" lon="6.46976670"><ele>425</ele><time>1989-12-31T00:00:00Z</time></trkpt>
<trkpt lat="46.50850000" lon="6.46918330"><ele>429</ele><time>1989-12-31T00:00:00Z</time></trkpt>
<trkpt lat="46.50821670" lon="6.46885000"><ele>433</ele><time>1989-12-31T00:00:00Z</time></trkpt>
<trkpt lat="46.50813330" lon="6.46876670"><ele>431</ele><time>1989-12-31T00:00:00Z</time></trkpt>
<trkpt lat="46.50795000" lon="6.46855000"><ele>431</ele><time>1989-12-31T00:00:00Z</time></trkpt>
<trkpt lat="46.50750000" lon="6.46806670"><ele>431</ele><time>1989-12-31T00:00:00Z</time></trkpt>
<trkpt lat="46.50685000" lon="6.46733330"><ele>427</ele><time>1989-12-31T00:00:00Z</time></trkpt>
<trkpt lat="46.50668330" lon="6.46731670"><ele>426</ele><time>1989-12-31T00:00:00Z</time></trkpt>
<trkpt lat="46.50590000" lon="6.46793330"><ele>426</ele><time>1989-12-31T00:00:00Z</time></trkpt>
<trkpt lat="46.50503330" lon="6.46868330"><ele>420</ele><time>1989-12-31T00:00:00Z</time></trkpt>
<trkpt lat="46.50476670" lon="6.46890000"><ele>420</ele><time>1989-12-31T00:00:00Z</time></trkpt>
<trkpt lat="46.50395000" lon="6.46911670"><ele>423</ele><time>1989-12-31T00:00:00Z</time></trkpt>
<trkpt lat="46.50318330" lon="6.46996670"><ele>413</ele><time>1989-12-31T00:00:00Z</time></trkpt>
<trkpt lat="46.50228330" lon="6.47098330"><ele>405</ele><time>1989-12-31T00:00:00Z</time></trkpt>
<trkpt lat="46.50131670" lon="6.47193330"><ele>401</ele><time>1989-12-31T00:00:00Z</time></trkpt>
<trkpt lat="46.49955000" lon="6.47350000"><ele>391</ele><time>1989-12-31T00:00:00Z</time></trkpt>
<trkpt lat="46.49908330" lon="6.47390000"><ele>393</ele><time>1989-12-31T00:00:00Z</time></trkpt>
<trkpt lat="46.49828330" lon="6.47456670"><ele>395</ele><time>1989-12-31T00:00:00Z</time></trkpt>
<trkpt lat="46.49768330" lon="6.47516670"><ele>395</ele><time>1989-12-31T00:00:00Z</time></trkpt>
<trkpt lat="46.49693330" lon="6.47630000"><ele>393</ele><time>1989-12-31T00:00:00Z</time></trkpt>
<trkpt lat="46.49641670" lon="6.47711670"><ele>390</ele><time>1989-12-31T00:00:00Z</time></trkpt>
<trkpt lat="46.49618330" lon="6.47753330"><ele>390</ele><time>1989-12-31T00:00:00Z</time></trkpt>
<trkpt lat="46.49605000" lon="6.47780000"><ele>390</ele><time>1989-12-31T00:00:00Z</time></trkpt>
<trkpt lat="46.49581670" lon="6.47825000"><ele>390</ele><time>1989-12-31T00:00:00Z</time></trkpt>
<trkpt lat="46.49558330" lon="6.47873330"><ele>390</ele><time>1989-12-31T00:00:00Z</time></trkpt>
<trkpt lat="46.49568330" lon="6.47898330"><ele>391</ele><time>1989-12-31T00:00:00Z</time></trkpt>
<trkpt lat="46.49583330" lon="6.47948330"><ele>391</ele><time>1989-12-31T00:00:00Z</time></trkpt>
<trkpt lat="46.49593330" lon="6.47965000"><ele>390</ele><time>1989-12-31T00:00:00Z</time></trkpt>
<trkpt lat="46.49635000" lon="6.48053330"><ele>388</ele><time>1989-12-31T00:00:00Z</time></trkpt>
<trkpt lat="46.49683330" lon="6.48166670"><ele>384</ele><time>1989-12-31T00:00:00Z</time></trkpt>
<trkpt lat="46.49706670" lon="6.48171670"><ele>384</ele><time>1989-12-31T00:00:00Z</time></trkpt>
<trkpt lat="46.49735000" lon="6.48173330"><ele>381</ele><time>1989-12-31T00:00:00Z</time></trkpt>
<trkpt lat="46.49768330" lon="6.48186670"><ele>381</ele><time>1989-12-31T00:00:00Z</time></trkpt>
<trkpt lat="46.49858330" lon="6.48258330"><ele>379</ele><time>1989-12-31T00:00:00Z</time></trkpt>
<trkpt lat="46.50028330" lon="6.48415000"><ele>379</ele><time>1989-12-31T00:00:00Z</time></trkpt>
<trkpt lat="46.50143330" lon="6.48525000"><ele>376</ele><time>1989-12-31T00:00:00Z</time></trkpt>
<trkpt lat="46.50183330" lon="6.48561670"><ele>375</ele><time>1989-12-31T00:00:00Z</time></trkpt>
<trkpt lat="46.50193330" lon="6.48571670"><ele>374</ele><time>1989-12-31T00:00:00Z</time></trkpt>
<trkpt lat="46.50176670" lon="6.48651670"><ele>374</ele><time>1989-12-31T00:00:00Z</time></trkpt>
<trkpt lat="46.50190000" lon="6.48658330"><ele>374</ele><time>1989-12-31T00:00:00Z</time></trkpt>
<trkpt lat="46.50290000" lon="6.48723330"><ele>374</ele><time>1989-12-31T00:00:00Z</time></trkpt>
<trkpt lat="46.50311670" lon="6.48738330"><ele>374</ele><time>1989-12-31T00:00:00Z</time></trkpt>
<trkpt lat="46.50326670" lon="6.48750000"><ele>373</ele><time>1989-12-31T00:00:00Z</time></trkpt>
<trkpt lat="46.50415000" lon="6.48808330"><ele>372</ele><time>1989-12-31T00:00:00Z</time></trkpt>
<trkpt lat="46.50530000" lon="6.48926670"><ele>368</ele><time>1989-12-31T00:00:00Z</time></trkpt>
<trkpt lat="46.50573330" lon="6.48986670"><ele>366</ele><time>1989-12-31T00:00:00Z</time></trkpt>
<trkpt lat="46.50568330" lon="6.48988330"><ele>368</ele><time>1989-12-31T00:00:00Z</time></trkpt>
<trkpt lat="46.50568330" lon="6.48988330"><ele>372</ele><time>1989-12-31T00:00:00Z</time></trkpt>
</trkseg></trk></gpx>